Weather Roundup
Issued by NWS

Home | Current Version | Previous Version | Graphics & Text | Print | Product List | Glossary Off
Versions: 1 2 3 4 5 6 7 8 9 10 11 12 13 14 15 16 17 18 19 20 21 22 23 24 25 26 27 28 29 30 31 32 33 34 35 36 37 38 39 40 41 42 43 44 45 46 47 48 49 50

000
NZUS93 KARX 210310
HRRWXR

CURRENT HOURLY OBSERVATIONS ACROSS
MUCH OF THE UPPER MISSISSIPPI VALLEY
NATIONAL WEATHER SERVICE LA CROSSE WI
900 PM CST MON NOV 20 2017


...SOUTHEAST MINNESOTA...


CITY           SKY/WX    TMP DP  RH WIND       PRES   REMARKS
ROCHESTER      CLEAR     42  30  62 W16       29.53R
ROCHESTER/MAYO FAIR      45  29  54 W17G25    29.51S
WINONA         CLEAR     48  30  49 W8G16     29.51S
AUSTIN         CLOUDY    43  28  56 W10G16    29.55R
ALBERT LEA     PTCLDY    45  27  49 W10       29.56R
DODGE CENTER   PTCLDY    39  28  65 W14       29.52S WCI  31
PRESTON        CLEAR     44  28  54 SW15G22   29.54R
OWATONNA       CLOUDY    41  30  65 SW13      29.53S
FARIBAULT      PTCLDY    39  28  65 SW7       29.52S WCI  34
$$

...ELSEWHERE IN MINNESOTA...


CITY           SKY/WX    TMP DP  RH WIND       PRES   REMARKS
MINNEAPOLIS    PTCLDY    43  28  55 W10       29.48R
INTNL FALLS    CLOUDY    37  29  72 NW28G39   29.20R WCI  25
DULUTH         CLOUDY    34  27  75 W16       29.27F WCI  24
RED WING       PTCLDY    45  25  45 W8        29.49R
REDWOOD FALLS  CLEAR     43  24  47 W15G25    29.55R
MANKATO        PTCLDY    41  27  57 W12       29.54R
WORTHINGTON    CLEAR     38  24  57 W16       29.59S WCI  29
FAIRMONT       PTCLDY    43  28  55 W14       29.57R
$$

...SOUTHWEST WISCONSIN...


CITY           SKY/WX    TMP DP  RH WIND       PRES   REMARKS
LA CROSSE      PTCLDY    52  29  41 SW15      29.51R
PRAIRIE DU CHI CLOUDY    51  28  41 S7        29.57S
BOSCOBEL       CLOUDY    52  30  43 SW10G21   29.56F
LONE ROCK      MOCLDY    52  32  46 SW15G23   29.55F
PLATTEVILLE    CLOUDY    49  33  52 SW18      29.60F
FORT MC COY    CLEAR     50  30  46 W6        29.51R
CAMP DOUGLAS   MOCLDY    50  30  46 SW14G22   29.49F
MAUSTON-NEW LI PTCLDY    52  30  43 SW9G20    29.48F
VIROQUA        FAIR      47  32  55 SW10G18   29.53S
WIS DELLS      CLOUDY    50  28  43 SW17G28   29.52F
$$

...ELSEWHERE IN WISCONSIN...


CITY           SKY/WX    TMP DP  RH WIND       PRES   REMARKS
MILWAUKEE      MOCLDY    48  33  56 SW18G32   29.62F
MADISON        MOCLDY    48  32  53 SW18      29.56F
GREEN BAY      PTCLDY    47  35  63 SW13G23   29.45F
EAU CLAIRE     CLEAR     44  28  53 SW13      29.44F
BLACK RVR FLS  FAIR      49  27  42 W8        29.48S
MEDFORD        CLEAR     40  30  67 SW9       29.40F WCI  34
WAUSAU         PTCLDY    41  30  65 SW9       29.41S
WIS RAPIDS     PTCLDY    46  31  55 SW10      29.47S
MARSHFIELD     CLEAR     44  29  55 SW13      29.42F
RICE LAKE      CLEAR     40  30  65 SW8       29.43R
$$

...NORTHEAST IOWA...


CITY           SKY/WX    TMP DP  RH WIND       PRES   REMARKS
WATERLOO       PTCLDY    47  30  51 SW14      29.59S
DUBUQUE        CLOUDY    50  30  46 SW21G32   29.59F
DECORAH        MOCLDY    46  32  57 VRB8G16   29.54S
MASON CITY     CLEAR     43  28  55 W16       29.59R
CHARLES CITY   CLOUDY    43  30  61 SW9       29.57S
OELWEIN        MOCLDY    43  32  65 SW10      29.60S
$$

...ELSEWHERE IN IOWA...


CITY           SKY/WX    TMP DP  RH WIND       PRES   REMARKS
DES MOINES     PTCLDY    47  30  51 SW8       29.65R
IOWA CITY      CLOUDY    53  31  42 S10       29.67F
FORT DODGE     CLOUDY    42  29  59 SW6       29.62R
MARSHALLTOWN   PTCLDY    46  32  58 SW9       29.62R
CEDAR RAPIDS   MOCLDY    50  31  48 S14       29.62F
$$

...NORTHERN ILLINOIS...


CITY           SKY/WX    TMP DP  RH WIND       PRES   REMARKS
CHICAGO-OHARE  CLOUDY    47  30  51 S23G37    29.72F
CHICAGO-MIDWAY MOCLDY    45  31  58 S17G30    29.75F
MOLINE         CLOUDY    51  31  46 S14G22    29.68F
ROCKFORD       CLOUDY    42  33  70 S13       29.70F
PEORIA         CLOUDY    45  32  60 S15       29.79S
$$

NOTE: "FAIR" INDICATES FEW OR NO CLOUDS BELOW 12,000 FEET WITH NO
SIGNIFICANT WEATHER AND/OR OBSTRUCTIONS TO VISIBILITY. WIND
SPEEDS ARE IN MILES-PER-HOUR.




USA.gov is the U.S. government's official web portal to all federal, state and local government web resources and services.